Murray, KY

9:39 PM CDT on April 30, 2017 (GMT -0500)
Kyle-Oakley

Weather History for KCEY - April, 2013

Change the Weather History Date:

Friday, April 26, 2013

  Actual Average (KPAH) Record (KPAH)
Temperature  
Mean Temperature 46 °F -  
Max Temperature 51 °F 72 °F 88 °F (1989)
Min Temperature 42 °F 50 °F 35 °F (1988)
Degree Days  
Heating Degree Days 18    
Moisture  
Dew Point 45 °F    
Average Humidity 88    
Maximum Humidity 100    
Minimum Humidity 71    
Precipitation  
Precipitation 0.45 in - - ()
Sea Level Pressure  
Sea Level Pressure 30.35 in    
Wind  
Wind Speed 4 mph (ESE)    
Max Wind Speed 12 mph    
Max Gust Speed 20 mph    
Visibility 8 miles    
Events      
Averages and records for this station are not official NWS values.
T = Trace of Precipitation, MM = Missing Value Source: NWS Daily Summary

Daily Weather History Graph

Daily Weather History Graph

Search for Another Location

Airport or City:

Trip Planner

Search our weather history database for the weather conditions in past years. The results will help you decide how hot, cold, wet, or windy it might be!

Date:

Astronomy

Apr. 26, 2013 Rise Set
Actual Time 6:05 AM CDT 7:37 PM CDT
Civil Twilight 5:37 AM CDT 8:05 PM CDT
Nautical Twilight 5:05 AM CDT 8:38 PM CDT
Astronomical Twilight 4:30 AM CDT 9:13 PM CDT
Moon 8:58 PM CDT (4/26) 6:33 AM CDT (4/26)
Length of Visible Light 14h 27m
Length of Day
13h 32m
Full, 99% of the Moon is Illuminated
Apr 26
Full
May 2
Last Quarter
May 9
New
May 17
First Quarter
May 24
Full

Hourly Weather History & Observations

Time (CDT) Temp. Windchill Dew Point Humidity Pressure Visibility Wind Dir Wind Speed Gust Speed Precip Events Conditions
12:15 AM 44.6 °F - 41.0 °F 87% 30.35 in 10.0 mi Calm Calm - N/A   Clear
12:35 AM 46.4 °F 44.3 °F 41.0 °F 81% 30.35 in 10.0 mi East 4.6 mph - N/A   Clear
12:55 AM 44.6 °F 43.1 °F 41.0 °F 87% 30.36 in 10.0 mi ESE 3.5 mph - N/A   Clear
1:15 AM 44.6 °F 43.1 °F 41.0 °F 87% 30.36 in 10.0 mi ESE 3.5 mph - N/A   Clear
1:35 AM 44.6 °F - 41.0 °F 87% 30.35 in 10.0 mi Calm Calm - N/A   Clear
1:55 AM 44.6 °F 43.1 °F 41.0 °F 87% 30.34 in 10.0 mi ESE 3.5 mph - N/A   Clear
2:15 AM 42.8 °F - 41.0 °F 93% 30.34 in 10.0 mi Calm Calm - N/A   Clear
2:35 AM 44.6 °F - 39.2 °F 81% 30.35 in 10.0 mi Calm Calm - N/A   Clear
2:55 AM 44.6 °F 41.4 °F 39.2 °F 81% 30.34 in 10.0 mi East 5.8 mph - N/A   Clear
3:15 AM 44.6 °F 40.7 °F 39.2 °F 81% 30.33 in 10.0 mi East 6.9 mph - N/A   Clear
3:35 AM 44.6 °F 41.4 °F 39.2 °F 81% 30.34 in 10.0 mi East 5.8 mph - N/A   Clear
3:55 AM 44.6 °F 42.2 °F 39.2 °F 81% 30.34 in 10.0 mi ESE 4.6 mph - N/A   Clear
4:15 AM 46.4 °F 45.2 °F 39.2 °F 76% 30.35 in 10.0 mi ESE 3.5 mph - N/A   Clear
4:35 AM 46.4 °F 44.3 °F 39.2 °F 76% 30.35 in 10.0 mi East 4.6 mph - N/A   Clear
4:55 AM 46.4 °F 44.3 °F 39.2 °F 76% 30.35 in 10.0 mi East 4.6 mph - N/A   Clear
5:15 AM 46.4 °F 44.3 °F 39.2 °F 76% 30.35 in 10.0 mi East 4.6 mph - N/A   Mostly Cloudy
5:35 AM 46.4 °F 43.5 °F 39.2 °F 76% 30.34 in 10.0 mi East 5.8 mph - N/A   Partly Cloudy
6:15 AM 46.4 °F 42.4 °F 39.2 °F 76% 30.31 in 10.0 mi ESE 8.1 mph - N/A   Mostly Cloudy
6:35 AM 46.4 °F 43.5 °F 39.2 °F 76% 30.31 in 10.0 mi ESE 5.8 mph - N/A   Scattered Clouds
6:55 AM 48.2 °F - 41.0 °F 76% 30.32 in 10.0 mi SE 3.5 mph - N/A   Mostly Cloudy
7:15 AM 48.2 °F - 39.2 °F 71% 30.35 in 10.0 mi SSE 3.5 mph - N/A   Overcast
7:35 AM 50.0 °F - 41.0 °F 71% 30.36 in 10.0 mi ESE 5.8 mph - N/A   Mostly Cloudy
7:55 AM 50.0 °F - 41.0 °F 71% 30.37 in 10.0 mi ESE 5.8 mph - N/A   Partly Cloudy
8:15 AM 50.0 °F - 41.0 °F 71% 30.38 in 10.0 mi ESE 4.6 mph - N/A   Scattered Clouds
8:35 AM 50.0 °F - 41.0 °F 71% 30.41 in 9.0 mi Calm Calm - N/A   Mostly Cloudy
8:55 AM 50.0 °F - 42.8 °F 76% 30.42 in 10.0 mi Calm Calm - N/A   Partly Cloudy
9:15 AM 50.0 °F - 42.8 °F 76% 30.42 in 10.0 mi Calm Calm - N/A   Clear
9:35 AM 50.0 °F - 41.0 °F 71% 30.45 in 10.0 mi SSW 3.5 mph - N/A   Partly Cloudy
9:55 AM 50.0 °F - 41.0 °F 71% 30.45 in 10.0 mi SSE 3.5 mph - N/A   Scattered Clouds
10:15 AM 51.8 °F - 42.8 °F 71% 30.43 in 10.0 mi East 3.5 mph - N/A   Scattered Clouds
10:35 AM 50.0 °F - 44.6 °F 82% 30.44 in 10.0 mi Calm Calm - N/A   Mostly Cloudy
10:55 AM 51.8 °F - 42.8 °F 71% 30.42 in 10.0 mi East 5.8 mph - N/A   Mostly Cloudy
11:15 AM 50.0 °F - 46.4 °F 87% 30.41 in 10.0 mi ENE 4.6 mph - N/A   Partly Cloudy
11:35 AM 50.0 °F - 44.6 °F 82% 30.41 in 10.0 mi ENE 4.6 mph - N/A   Clear
11:55 AM 51.8 °F - 46.4 °F 82% 30.39 in 8.0 mi ENE 3.5 mph - N/A   Clear
12:15 PM 51.8 °F - 46.4 °F 82% 30.40 in 10.0 mi ENE 5.8 mph - N/A   Clear
12:35 PM 51.8 °F - 46.4 °F 82% 30.40 in 8.0 mi North 3.5 mph - N/A   Partly Cloudy
12:55 PM 50.0 °F - 48.2 °F 94% 30.40 in 6.0 mi Calm Calm - N/A   Partly Cloudy
1:15 PM 50.0 °F - 48.2 °F 94% 30.39 in 9.0 mi Calm Calm - 0.01 in   Partly Cloudy
1:35 PM 50.0 °F - 48.2 °F 94% 30.40 in 5.0 mi Calm Calm - 0.02 in   Scattered Clouds
1:55 PM 50.0 °F - 48.2 °F 94% 30.39 in 5.0 mi SSE 3.5 mph - 0.02 in   Mostly Cloudy
2:15 PM 50.0 °F - 48.2 °F 94% 30.40 in 4.0 mi Calm Calm - 0.02 in   Mostly Cloudy
2:35 PM 50.0 °F - 50.0 °F 100% 30.42 in 10.0 mi West 3.5 mph - 0.04 in   Scattered Clouds
2:55 PM 50.0 °F - 48.2 °F 94% 30.40 in 1.8 mi Calm Calm - 0.10 in   Overcast
3:15 PM 50.0 °F - 48.2 °F 94% 30.44 in 3.0 mi NW 4.6 mph - 0.05 in   Overcast
3:35 PM 50.0 °F - 48.2 °F 94% 30.43 in 3.0 mi Calm Calm - 0.10 in   Mostly Cloudy
3:55 PM 48.2 °F - 48.2 °F 100% 30.40 in 3.0 mi ENE 8.1 mph - 0.13 in   Mostly Cloudy
4:15 PM 48.2 °F - 48.2 °F 100% 30.34 in 2.5 mi ESE 11.5 mph 16.1 mph 0.04 in   Mostly Cloudy
4:35 PM 48.2 °F - 48.2 °F 100% 30.30 in 4.0 mi East 11.5 mph 19.6 mph 0.07 in   Scattered Clouds
4:55 PM 48.2 °F - 48.2 °F 100% 30.27 in 10.0 mi ESE 10.4 mph 17.3 mph 0.07 in   Clear
5:15 PM 50.0 °F - 48.2 °F 94% 30.26 in 10.0 mi ESE 9.2 mph - N/A   Clear
5:35 PM 50.0 °F - 48.2 °F 94% 30.29 in 10.0 mi ESE 4.6 mph - N/A   Partly Cloudy
5:55 PM 50.0 °F - 48.2 °F 94% 30.27 in 10.0 mi East 9.2 mph - N/A   Partly Cloudy
6:15 PM 50.0 °F - 48.2 °F 94% 30.27 in 10.0 mi SE 9.2 mph - N/A   Clear
6:35 PM 50.0 °F - 48.2 °F 94% 30.32 in 8.0 mi North 10.4 mph - N/A   Partly Cloudy
6:55 PM 50.0 °F - 48.2 °F 94% 30.34 in 5.0 mi NE 8.1 mph - 0.01 in   Mostly Cloudy
7:15 PM 48.2 °F - 48.2 °F 100% 30.27 in 8.0 mi East 11.5 mph - N/A   Mostly Cloudy
7:35 PM 48.2 °F - 48.2 °F 100% 30.29 in 10.0 mi East 6.9 mph - N/A   Scattered Clouds
7:55 PM 48.2 °F - 48.2 °F 100% 30.32 in 10.0 mi East 9.2 mph - N/A   Overcast
8:15 PM 48.2 °F - 48.2 °F 100% 30.33 in 10.0 mi East 6.9 mph - N/A   Overcast
8:35 PM 48.2 °F - 48.2 °F 100% 30.30 in 10.0 mi East 8.1 mph - N/A   Overcast
8:55 PM 48.2 °F - 48.2 °F 100% 30.32 in 10.0 mi ESE 4.6 mph - N/A   Overcast
9:15 PM 48.2 °F - 48.2 °F 100% 30.34 in 8.0 mi Calm Calm - N/A   Overcast
9:35 PM 48.2 °F - 48.2 °F 100% 30.34 in 5.0 mi Calm Calm - 0.04 in   Overcast
9:55 PM 48.2 °F - 48.2 °F 100% 30.31 in 5.0 mi SE 6.9 mph - 0.10 in   Overcast
10:15 PM 48.2 °F - 48.2 °F 100% 30.30 in 10.0 mi SE 5.8 mph - N/A   Overcast
10:35 PM 48.2 °F - 48.2 °F 100% 30.31 in 5.0 mi SE 4.6 mph - N/A   Mostly Cloudy
10:55 PM 48.2 °F - 48.2 °F 100% 30.31 in 10.0 mi ESE 5.8 mph - N/A   Overcast
11:15 PM 48.2 °F - 48.2 °F 100% 30.31 in 7.0 mi SE 4.6 mph - N/A   Overcast
11:35 PM 48.2 °F - 48.2 °F 100% 30.33 in 10.0 mi Calm Calm - 0.01 in   Unknown
11:55 PM 48.2 °F - 48.2 °F 100% 30.31 in 4.0 mi ESE 4.6 mph - 0.02 in   Unknown